Flag for U.S.A. Weather past 2 weeks in Des Moines, Iowa, U.S.A.

Now
25 °F

Passing clouds.


Feels Like: 19 °F
Forecast: 22 / 31 °F
Wind: 5 mph from North

Location: Des Moines International Airport

Current Time: Dec 17, 2014 at 6:54:51 PM

Latest Report: Dec 17, 2014 at 5:54 PM


Visibility: 10 mi

Pressure: 30.33 "Hg

Humidity: 66%

Dew point: 15 °F

Location of Des MoinesLocation

Historic Weather in Des Moines — Graph

°F

Des Moines temperature yesterday

Maximum temperature yesterday: 32 °F (at 12:54 AM)
Minimum temperature yesterday: 18 °F (at 11:54 PM)
Average temperature yesterday: 26 °F

Past Weeks' High & Low Weather Summary

 TemperatureHumidityPressure
High57 °F (Dec 13, 2:54 PM)96% (Dec 5, 5:54 AM)30.61 "Hg (Dec 5, 5:54 AM)
Low15 °F (Dec 17, 4:54 AM)35% (Dec 3, 1:54 PM)29.55 "Hg (Dec 15, 1:54 PM)
Average36 °F76%30.22 "Hg
* Reported Dec 2 4:54 PM — Dec 17 4:54 PM, Des Moines, Weather by CustomWeather, © 2014

Note: Actual official high and low records may vary slightly from our data, if they occured in-between our weather recording intervals... More about our weather records

Advertising

Des Moines weather history for previous 24 hours

 ConditionsComfort  
Time TempWeatherWind HumidityBarometerVisibility
4:54 PM
Dec 17
26 °FPassing clouds.3 mph63%30.34 "Hg10 mi
3:54 PM28 °FPartly sunny.No wind53%30.33 "Hg10 mi
2:54 PM30 °FPartly sunny.6 mph51%30.32 "Hg10 mi
1:54 PM28 °FBroken clouds.6 mph53%30.32 "Hg10 mi
12:54 PM28 °FPartly sunny.8 mph53%30.34 "Hg10 mi
11:54 AM24 °FPartly sunny.8 mph62%30.37 "Hg10 mi
10:54 AM22 °FPassing clouds.6 mph62%30.39 "Hg10 mi
9:54 AM19 °FPassing clouds.8 mph71%30.40 "Hg10 mi
8:54 AM17 °FPassing clouds.6 mph74%30.40 "Hg10 mi
7:54 AM15 °FScattered clouds.7 mph77%30.39 "Hg10 mi
6:54 AM15 °FPassing clouds.7 mph77%30.39 "Hg10 mi
5:54 AM15 °FClear.8 mph77%30.39 "Hg10 mi
4:54 AM15 °FPassing clouds.9 mph77%30.38 "Hg10 mi
3:54 AM17 °FLight snow. Overcast.10 mph74%30.39 "Hg9 mi
2:54 AM19 °FLight snow. Overcast.8 mph71%30.39 "Hg9 mi
1:54 AM17 °FLight snow. Overcast.8 mph74%30.38 "Hg9 mi
12:54 AM17 °FLight snow. Overcast.9 mph74%30.37 "Hg9 mi
11:54 PM
Dec 16
18 °FOvercast.13 mph71%30.37 "Hg10 mi
10:54 PM20 °FLight snow. Overcast.15 mph71%30.35 "Hg9 mi
9:54 PM22 °FLight snow. Overcast.14 mph72%30.35 "Hg10 mi
8:54 PM23 °FOvercast.10 mph72%30.34 "Hg10 mi
7:54 PM24 °FOvercast.20 mph71%30.34 "Hg10 mi
6:54 PM25 °FOvercast.20 mph72%30.34 "Hg10 mi
Weather by CustomWeather, © 2014

See weather overviewHow to use our weather pages